Location: Banksville Park
(38.5557°N, 75.1182°W)
Time: 04:22:26
(UTC+00:00)

Envisat - Pass Details

Date: 26 November 2020
Orbit: 764 x 766 km, 98.1° (Epoch: 16 January)

Event Time Altitude Azimuth Distance (km) Brightness Sun altitude
Rises 10:06:56 0° 24° (NNE) 3,240 6.4 -20.7°
Reaches altitude 10° 10:09:32 10° 35° (NE) 2,309 5.8 -20.2°
Maximum altitude 10:13:57 29° 96° (E) 1,366 5.0 -19.4°
Drops below altitude 10° 10:18:20 10° 156° (SSE) 2,294 5.9 -18.5°
Sets 10:20:54 0° 167° (SSE) 3,215 6.6 -18.0°
